Location: Cambridge (historical)
(38.6883°N, 119.0140°W)
Time: 00:10:07
(UTC+00:00)

VELOX 1 - Pass Details

Date: 25 September 2021
Orbit: 626 x 642 km, 98.3° (Epoch: 17 October)

Event Time Altitude Azimuth Distance (km) Brightness Sun altitude
Exits shadow 12:28:05 16° 308° (NW) 1,674 ? -16.1°
Drops below altitude 10° 12:29:13 10° 319° (NW) 2,014 ? -15.9°
Sets 12:31:46 0° 333° (NNW) 2,925 ? -15.4°
